Retour au catalogue

GCOM-C

ActifScienceSSO
NORAD 43065·PAYLOAD·🇯🇵 Japan

Lancé Dec 23, 2017 depuis Tanegashima Space Center

Loading…

Prochains Passages (prochaines 24 heures)

TLE

FraisSource: Space-Track

Époque: Sep 14, 2026, 02:36 UTC

1 43065U 17082A   26257.10894701  .00000087  00000-0  53606-4 0  9997
2 43065  98.6207 329.5479 0001215  92.9657 267.1663 14.27290771454620

Suivez GCOM-C en temps réel avec AllMySat

Download on the App Store